Flag for Turkey Weather past 2 weeks in Bursa, Turkey

Now
70 °F

Passing clouds.


Feels Like: 70 °F
Forecast: 60 / 84 °F
Wind: 1 mph from Northeast

Location: Bursa

Current Time: Jul 5, 2015 at 3:29:42 AM

Latest Report: Jul 5, 2015 at 12:00 AM


Visibility: 9 mi

Pressure: 30.07 "Hg

Humidity: 75%

Dew point: 62 °F

Location of BursaLocation

Historic Weather in Bursa — Graph

°F

Bursa temperature yesterday

Maximum temperature yesterday: 81 °F (at 3:00 PM)
Minimum temperature yesterday: 61 °F (at 6:00 AM)
Average temperature yesterday: 74 °F

Past Weeks' High & Low Weather Summary

 TemperatureHumidityPressure
High84 °F (Jun 21, 5:00 PM)98% (Jun 24, 5:00 AM)30.16 "Hg (Jun 24, 5:00 AM)
Low59 °F (Jun 29, 5:00 AM)38% (Jun 30, 2:00 PM)29.77 "Hg (Jun 21, 5:00 PM)
Average72 °F68%29.95 "Hg
* Reported Midnight between Jun 19 and Jun 20 — Midnight between Jul 4 and Jul 5, Bursa, Weather by CustomWeather, © 2015

Note: Actual official high and low records may vary slightly from our data, if they occured in-between our weather recording intervals... More about our weather records

Advertising

Bursa weather history for previous 24 hours

 ConditionsComfort  
Time TempWeatherWind HumidityBarometerVisibility
12:00 AM
Sun, Jul 5
70 °FPassing clouds.1 mph75%30.07 "Hg9 mi
9:00 PM
Sat, Jul 4
74 °FPassing clouds.6 mph67%30.06 "Hg12 mi
8:00 PM75 °FPartly sunny.7 mph67%30.06 "Hg12 mi
7:00 PM76 °FPartly sunny.10 mph62%30.05 "Hg12 mi
6:00 PM77 °FPartly sunny.10 mph59%30.05 "Hg12 mi
5:00 PM78 °FPartly sunny.9 mph55%30.05 "Hg12 mi
4:00 PM80 °FPartly sunny.9 mph54%30.06 "Hg12 mi
3:00 PM81 °FPartly sunny.9 mph52%30.06 "Hg12 mi
2:00 PM80 °FPartly sunny.7 mph53%30.07 "Hg12 mi
1:00 PM79 °FScattered clouds.6 mph55%30.09 "Hg12 mi
12:00 PM78 °FScattered clouds.2 mph56%30.10 "Hg12 mi
11:00 AM76 °FScattered clouds.2 mph56%30.10 "Hg9 mi
10:00 AM73 °FPassing clouds.3 mph65%30.11 "Hg9 mi
9:00 AM71 °FSunny.1 mph67%30.12 "Hg9 mi
6:00 AM61 °FScattered clouds.1 mph86%30.13 "Hg9 mi
3:00 AM65 °FPassing clouds.3 mph81%30.14 "Hg9 mi
Weather by CustomWeather, © 2015

See weather overviewHow to use our weather pages